When you browse on this site, cookies collect data to enhance your experience and personalize the content and advertising you see.
Visit our Privacy Policy to learn more. By continuing to use the site, you agree to this use of cookies and data.
  • In Lithuania
  • List of Countries
  • For 7 days
  • Water Temperature
  • Satellite Maps
  • Weather Map
  • Weather Widgets
  • user-avatar
    Login

    Hourly Weather Ischgl

    Today, 19 April, Friday

    Time Temperature Precipitation Wind Pressure Humidity
    00:00 -6°C° 0 mm 3 mps 576 mmHg 91%
    01:00 -7°C° 0 mm 3 mps 575 mmHg 91%
    02:00 -7°C° 0 mm 3 mps 575 mmHg 91%
    03:00 -7°C° 0 mm 3 mps 575 mmHg 91%
    04:00 -7°C° 0 mm 3 mps 575 mmHg 91%
    05:00 -6°C° 0 mm 3 mps 576 mmHg 90%
    06:00 -5°C° 0 mm 2 mps 577 mmHg 89%
    07:00 -3°C° 0 mm 2 mps 578 mmHg 89%
    08:00 -2°C° 0 mm 2 mps 578 mmHg 88%
    09:00 +1°C° 0 mm 2 mps 579 mmHg 86%
    10:00 +2°C° 0 mm 2 mps 579 mmHg 85%
    11:00 +3°C° 0 mm 2 mps 580 mmHg 79%
    12:00 +3°C° 0 mm 2 mps 580 mmHg 74%
    13:00 +4°C° 0 mm 2 mps 580 mmHg 69%
    14:00 +5°C° 0.1 mm 1 mps 580 mmHg 67%
    15:00 +5°C° 0.1 mm 1 mps 580 mmHg 66%
    16:00 +6°C° 0.1 mm 1 mps 580 mmHg 64%
    17:00 +4°C° 0 mm 1 mps 579 mmHg 70%
    18:00 +2°C° 0 mm 1 mps 578 mmHg 76%
    19:00 0°C° 0 mm 1 mps 577 mmHg 82%
    20:00 -1°C° 0 mm 1 mps 577 mmHg 82%
    21:00 -1°C° 0 mm 1 mps 577 mmHg 82%
    22:00 -4°C° 0 mm 2 mps 577 mmHg 82%
    23:00 -4°C° 0 mm 2 mps 577 mmHg 81%

    Tomorrow, 20 April, Saturday

    Time Temperature Precipitation Wind Pressure Humidity
    00:00 -4°C° 0 mm 2 mps 577 mmHg 80%
    01:00 -5°C° 0 mm 2 mps 577 mmHg 79%
    02:00 -5°C° 0 mm 2 mps 577 mmHg 76%
    03:00 -5°C° 0 mm 2 mps 577 mmHg 74%
    04:00 -5°C° 0 mm 2 mps 577 mmHg 72%
    05:00 -4°C° 0 mm 2 mps 577 mmHg 68%
    06:00 -3°C° 0 mm 2 mps 578 mmHg 64%
    07:00 -2°C° 0 mm 2 mps 578 mmHg 60%
    08:00 +1°C° 0 mm 2 mps 579 mmHg 55%
    09:00 +4°C° 0 mm 1 mps 580 mmHg 50%
    10:00 +5°C° 0 mm 1 mps 580 mmHg 45%
    11:00 +6°C° 0 mm 1 mps 580 mmHg 44%
    12:00 +6°C° 0 mm 2 mps 581 mmHg 43%
    13:00 +7°C° 0 mm 2 mps 581 mmHg 41%
    14:00 +7°C° 0 mm 2 mps 581 mmHg 42%
    15:00 +7°C° 0 mm 2 mps 580 mmHg 42%
    16:00 +7°C° 0 mm 2 mps 580 mmHg 43%
    17:00 +5°C° 0 mm 1 mps 579 mmHg 51%
    18:00 +3°C° 0 mm 1 mps 577 mmHg 59%
    19:00 +1°C° 0 mm 1 mps 576 mmHg 67%
    20:00 0°C° 0 mm 1 mps 576 mmHg 68%
    21:00 -2°C° 0 mm 2 mps 576 mmHg 68%
    22:00 -3°C° 0 mm 2 mps 576 mmHg 69%
    23:00 -3°C° 0 mm 2 mps 576 mmHg 70%

    Day after tomorrow, 21 April, Sunday

    Time Temperature Precipitation Wind Pressure Humidity
    00:00 -3°C° 0 mm 2 mps 576 mmHg 71%
    01:00 -4°C° 0 mm 2 mps 576 mmHg 73%
    02:00 -4°C° 0 mm 2 mps 575 mmHg 73%
    03:00 -4°C° 0 mm 2 mps 575 mmHg 74%
    04:00 -4°C° 0 mm 2 mps 575 mmHg 75%
    05:00 -3°C° 0 mm 2 mps 575 mmHg 68%
    06:00 -2°C° 0 mm 2 mps 575 mmHg 61%
    07:00 -1°C° 0 mm 2 mps 576 mmHg 55%
    08:00 +2°C° 0 mm 2 mps 576 mmHg 47%
    09:00 +4°C° 0 mm 2 mps 577 mmHg 39%
    10:00 +7°C° 0 mm 1 mps 578 mmHg 31%
    11:00 +7°C° 0 mm 2 mps 577 mmHg 30%
    12:00 +8°C° 0 mm 2 mps 577 mmHg 29%
    13:00 +8°C° 0 mm 2 mps 577 mmHg 28%
    14:00 +8°C° 0 mm 2 mps 577 mmHg 30%
    15:00 +8°C° 0 mm 2 mps 577 mmHg 32%
    16:00 +8°C° 0 mm 2 mps 576 mmHg 33%
    17:00 +6°C° 0 mm 2 mps 575 mmHg 43%
    18:00 +3°C° 0 mm 2 mps 574 mmHg 53%
    19:00 +1°C° 0 mm 2 mps 572 mmHg 62%
    20:00 -1°C° 0 mm 2 mps 572 mmHg 67%
    21:00 -1°C° 0 mm 2 mps 572 mmHg 71%
    22:00 -2°C° 0 mm 3 mps 572 mmHg 76%
    23:00 -2°C° 0 mm 3 mps 571 mmHg 80%

    22 April, Monday

    Time Temperature Precipitation Wind Pressure Humidity
    00:00 -4°C° 0 mm 3 mps 571 mmHg 84%
    01:00 -4°C° 0 mm 3 mps 571 mmHg 88%
    02:00 -4°C° 0 mm 3 mps 571 mmHg 86%
    03:00 -4°C° 0 mm 3 mps 570 mmHg 85%
    04:00 -4°C° 0 mm 3 mps 570 mmHg 83%
    05:00 -2°C° 0 mm 3 mps 570 mmHg 75%
    06:00 -1°C° 0 mm 3 mps 570 mmHg 68%
    07:00 0°C° 0 mm 3 mps 570 mmHg 60%
    08:00 +2°C° 0 mm 3 mps 571 mmHg 55%
    09:00 +3°C° 0 mm 3 mps 571 mmHg 50%
    10:00 +5°C° 0 mm 3 mps 572 mmHg 45%
    11:00 +7°C° 0 mm 3 mps 572 mmHg 44%
    12:00 +8°C° 0 mm 3 mps 571 mmHg 44%
    13:00 +8°C° 0 mm 3 mps 571 mmHg 43%
    14:00 +8°C° 0 mm 3 mps 570 mmHg 46%
    15:00 +7°C° 0 mm 3 mps 570 mmHg 49%
    16:00 +7°C° 0 mm 3 mps 569 mmHg 52%
    17:00 +4°C° 0 mm 3 mps 568 mmHg 57%
    18:00 +3°C° 0 mm 3 mps 567 mmHg 63%
    19:00 +1°C° 0 mm 3 mps 566 mmHg 69%
    20:00 0°C° 0 mm 3 mps 566 mmHg 73%
    21:00 0°C° 0 mm 3 mps 566 mmHg 77%
    22:00 -1°C° 0 mm 3 mps 565 mmHg 81%
    23:00 -1°C° 0 mm 3 mps 565 mmHg 82%

    23 April, Tuesday

    Time Temperature Precipitation Wind Pressure Humidity
    00:00 -2°C° 0 mm 3 mps 564 mmHg 83%
    01:00 -2°C° 0 mm 3 mps 564 mmHg 85%
    02:00 -2°C° 0 mm 3 mps 564 mmHg 84%
    03:00 -2°C° 0 mm 3 mps 563 mmHg 83%
    04:00 -2°C° 0 mm 3 mps 563 mmHg 81%
    05:00 -1°C° 0 mm 3 mps 563 mmHg 79%
    06:00 -1°C° 0 mm 3 mps 563 mmHg 76%
    07:00 0°C° 0 mm 3 mps 564 mmHg 73%
    08:00 +1°C° 0.1 mm 3 mps 564 mmHg 69%
    09:00 +2°C° 0.1 mm 3 mps 565 mmHg 64%
    10:00 +4°C° 0.1 mm 3 mps 566 mmHg 59%
    11:00 +6°C° 0.1 mm 2 mps 566 mmHg 57%
    12:00 +7°C° 0.1 mm 2 mps 567 mmHg 55%
    13:00 +8°C° 0.1 mm 2 mps 567 mmHg 53%
    14:00 +7°C° 0.3 mm 2 mps 567 mmHg 57%
    15:00 +7°C° 0.3 mm 3 mps 567 mmHg 60%
    16:00 +5°C° 0.3 mm 3 mps 567 mmHg 64%
    17:00 +4°C° 0.2 mm 3 mps 566 mmHg 69%
    18:00 +4°C° 0.2 mm 2 mps 566 mmHg 75%
    19:00 +3°C° 0.2 mm 2 mps 566 mmHg 80%
    20:00 +1°C° 0 mm 3 mps 566 mmHg 82%
    21:00 0°C° 0 mm 3 mps 566 mmHg 84%
    22:00 -1°C° 0 mm 3 mps 566 mmHg 87%
    23:00 -1°C° 0 mm 3 mps 566 mmHg 87%

    24 April, Wednesday

    Time Temperature Precipitation Wind Pressure Humidity
    00:00 -1°C° 0 mm 3 mps 566 mmHg 87%
    01:00 -1°C° 0 mm 3 mps 566 mmHg 87%
    02:00 -1°C° 0 mm 3 mps 567 mmHg 87%
    03:00 -1°C° 0 mm 3 mps 567 mmHg 87%
    04:00 -2°C° 0 mm 3 mps 567 mmHg 88%
    05:00 -1°C° 0 mm 3 mps 568 mmHg 84%
    06:00 0°C° 0 mm 3 mps 569 mmHg 80%
    07:00 +1°C° 0 mm 3 mps 569 mmHg 77%
    08:00 +3°C° 0 mm 4 mps 570 mmHg 70%
    09:00 +4°C° 0 mm 4 mps 571 mmHg 63%
    10:00 +6°C° 0 mm 4 mps 572 mmHg 56%
    11:00 +6°C° 0 mm 4 mps 572 mmHg 54%
    12:00 +6°C° 0 mm 4 mps 572 mmHg 53%
    13:00 +7°C° 0 mm 5 mps 573 mmHg 52%
    14:00 +7°C° 0 mm 5 mps 572 mmHg 51%
    15:00 +7°C° 0 mm 5 mps 572 mmHg 50%
    16:00 +7°C° 0 mm 5 mps 572 mmHg 49%
    17:00 +6°C° 0 mm 4 mps 571 mmHg 56%
    18:00 +4°C° 0 mm 4 mps 571 mmHg 63%
    19:00 +3°C° 0 mm 4 mps 570 mmHg 69%
    20:00 +1°C° 0 mm 4 mps 570 mmHg 75%
    21:00 0°C° 0 mm 4 mps 570 mmHg 81%
    22:00 -1°C° 0 mm 4 mps 570 mmHg 87%
    23:00 -1°C° 0 mm 4 mps 570 mmHg 88%
    Show more